STARLINK-1413, 45689

Orbit data source: Space-Track

STARLINK-1413, 45689 is a payload satellite owned by SpaceX/Seattle (US) in LEO that was launched on Thu, 04 Jun 2020 UTC via an FALCON 9 launch vehicle from the Air Force Eastern Test Range (AFETR). Payload-class satellites include a variety of spacecraft equipped with specific instruments for various scientific and technological missions. These include communications satellites like Starlink; space stations such as the ISS; scientific satellites like the Hubble; Earth observation satellites from companies like Planet Labs, Umbra, and HawkEye 360; GPS; miniature CubeSats for education and research; and military/defense satellites.

Loading next visibility...
Identifier
45689, 2020-035AJ
Orbit
LEO
Country
Flag of USUS
Related business
Manufacturer
SpaceX/Seattle
Mission
Operational Commercial Communications
Bus & Motor
STARLINK, Unknown motor
Mass
260 kg wet, ~248 kg dry
Launch date (UTC)
2020-06-04 (5 years ago)
Launch vehicle
FALCON 9
Launch site
Air Force Eastern Test Range (AFETR)
Object type
Payload
Rocket body
Debris
Shape & HBR
Box + 1 Pan, 4.4 m
Radar Cross Section
13.562 m², Large (>1 m²)

Expand to show TLE details & history
Last TLE update: 20 hours ago

TLE from 20 hours ago
0 STARLINK-1413
1 45689U 20035AJ  25260.98644424 -.00001267  00000-0 -66184-4 0  9995
2 45689  53.0535 111.9100 0001395  88.4953 271.6196 15.06392913292759
Epoch: 2025-09-17T23:40Z
TLE epoch observation values (Epoch: 2025-09-17T23:40:28.782Z)
Latitude
0.00001°
Longitude
119.63556°
Altitude
548.085 km
Speed
7.589 km/s
True Right ascension
07h 27m 38s
True Declination
0° 00' 00"
Sunlit
Object was in daylight at epoch
Visualization orbit readout
Latitude
Unknown
Longitude
Unknown
Altitude
Unknown
Speed
Unknown
Apparent Right ascension
Unknown
Apparent Declination
Unknown
Sunlit
N/A
Visualization observer readout
Local Sidereal Time
12:21:56
Azimuth
Unknown
Elevation
Unknown
Doppler factor
Unknown
Orbital elements
Apogee altitude
548.47 km
Perigee altitude
546.538 km
Semi-major axis
6,925.641 km
Eccentricity
0.00014
Inclination
53.0535°
RAAN
111.91°
Arg. of periapsis
88.4953°
True anomaly
271.60362°
Mean anomaly
271.6196°
Eccentric anomaly
271.61161°
Mean motion
3.76576 °/min
Orbital period
95.6 mins
BSTAR
-0.000066184
Loading maneuver chart data...
Computing Atmospheric mass density...

Documentation

Showing up to 5 results
|